Temperature
-2 -2 -2 -2 -2 -2 -2 -2 -2 -2 -1 -1 -1 -1 -1 -1 -1 -1 -1 -1 -1 -1 -1 -1 -1 -1 -1 -1 -1 -1 -1 -1 -1 -0 -0 0 0 0 1 1 1 1 1
-2 -2 -2 -2 -2 -3 -3 -2 -2 -2 -2 -2 -2 -2 -2 -2 -2 -1 -1 -1 -1 -1 -1 -1 -1 -1 -1 -1 -1 -1 -1 -1 -1 -1 -1 -0 -0 -0 -0 0 0 0 1
-3 -3 -3 -3 -3 -3 -3 -3 -3 -3 -3 -3 -3 -3 -2 -2 -2 -2 -2 -2 -2 -2 -2 -2 -2 -2 -2 -1 -2 -2 -1 -1 -2 -2 -1 -1 -1 -1 -1 -1 -0 -0 -0
-4 -4 -4 -4 -4 -4 -4 -4 -4 -4 -4 -4 -4 -3 -3 -3 -3 -3 -3 -3 -3 -3 -3 -2 -2 -2 -2 -2 -2 -2 -2 -2 -2 -2 -2 -2 -1 -1 -1 -1 -1 -1 -0
-4 -4 -4 -5 -5 -5 -5 -5 -5 -5 -5 -4 -4 -4 -4 -4 -4 -4 -4 -4 -4 -3 -3 -3 -3 -3 -3 -3 -3 -3 -3 -3 -3 -3 -2 -2 -2 -2 -2 -2 -2 -2 -1
-5 -5 -5 -5 -6 -6 -6 -6 -6 -5 -5 -5 -5 -5 -5 -5 -5 -5 -5 -5 -4 -4 -4 -4 -4 -4 -3 -3 -3 -3 -3 -3 -3 -3 -3 -3 -3 -3 -3 -3 -3 -3 -3
-6 -6 -6 -6 -6 -6 -6 -6 -6 -6 -6 -6 -6 -6 -6 -5 -5 -5 -6 -6 -5 -5 -5 -5 -5 -4 -4 -4 -4 -4 -4 -4 -4 -4 -4 -4 -4 -4 -4 -4 -4 -4 -4
-7 -7 -7 -7 -7 -7 -7 -7 -7 -7 -7 -7 -7 -7 -6 -6 -6 -6 -6 -6 -6 -6 -6 -6 -5 -5 -5 -5 -5 -5 -5 -5 -5 -5 -5 -5 -5 -5 -5 -5 -5 -5 -5
-7 -7 -7 -8 -8 -8 -8 -8 -8 -8 -8 -7 -7 -7 -7 -7 -7 -7 -7 -7 -7 -6 -6 -6 -6 -6 -6 -6 -6 -6 -6 -6 -6 -6 -6 -6 -6 -5 -5 -6 -5 -6 -5
-8 -8 -8 -8 -8 -8 -8 -8 -8 -8 -8 -8 -8 -8 -8 -8 -8 -7 -8 -8 -7 -7 -7 -7 -7 -7 -7 -7 -7 -7 -7 -7 -6 -6 -6 -6 -6 -6 -6 -6 -6 -6 -6
-9 -9 -9 -9 -9 -9 -9 -9 -9 -9 -9 -9 -8 -8 -8 -8 -8 -8 -8 -8 -8 -8 -8 -8 -8 -8 -8 -8 -8 -8 -8 -7 -7 -7 -7 -7 -7 -7 -7 -7 -7 -7 -7
-9 -9 -9 -9 -9 -9 -9 -9 -10 -10 -9 -9 -9 -9 -9 -9 -9 -9 -9 -9 -9 -9 -9 -9 -8 -8 -8 -8 -8 -8 -8 -8 -8 -8 -8 -8 -7 -7 -7 -7 -7 -7 -7
-10 -10 -10 -10 -10 -10 -10 -10 -10 -10 -10 -10 -10 -10 -10 -10 -10 -10 -10 -10 -10 -10 -9 -9 -9 -9 -9 -9 -9 -9 -9 -9 -9 -8 -8 -8 -8 -8 -8 -8 -8 -8 -8
-11 -11 -11 -11 -11 -11 -11 -11 -11 -11 -11 -11 -11 -11 -11 -10 -10 -10 -10 -10 -10 -10 -10 -10 -10 -10 -10 -10 -9 -9 -10 -9 -9 -9 -9 -9 -9 -9 -9 -9 -9 -9 -8
-11 -11 -11 -11 -11 -11 -11 -11 -11 -11 -11 -11 -11 -11 -11 -11 -11 -11 -11 -11 -11 -11 -11 -11 -11 -11 -11 -10 -10 -10 -10 -10 -10 -10 -10 -10 -10 -10 -10 -10 -10 -10 -10
-12 -12 -12 -12 -12 -12 -12 -12 -12 -12 -12 -12 -12 -12 -12 -12 -12 -12 -12 -12 -12 -12 -12 -12 -11 -11 -11 -11 -11 -11 -11 -11 -11 -11 -10 -10 -10 -10 -10 -10 -10 -10 -10
-12 -12 -12 -12 -12 -13 -12 -12 -12 -12 -12 -12 -12 -12 -13 -13 -12 -12 -12 -12 -12 -12 -12 -12 -12 -12 -12 -12 -12 -11 -11 -11 -11 -11 -11 -11 -11 -11 -11 -11 -11 -11 -11
-13 -13 -13 -13 -13 -13 -13 -13 -13 -13 -13 -12 -12 -13 -13 -13 -13 -13 -13 -13 -13 -13 -13 -13 -13 -12 -12 -12 -12 -12 -12 -12 -12 -12 -12 -12 -12 -12 -12 -12 -12 -12 -12
-13 -13 -13 -13 -13 -13 -13 -13 -14 -14 -14 -13 -13 -13 -13 -13 -13 -13 -13 -13 -13 -13 -13 -13 -13 -13 -13 -13 -13 -13 -12 -12 -12 -12 -12 -12 -12 -12 -12 -12 -12 -12 -12
-14 -14 -14 -14 -14 -14 -14 -14 -14 -14 -14 -14 -14 -14 -14 -14 -14 -14 -14 -14 -14 -14 -14 -14 -14 -13 -13 -13 -13 -13 -13 -13 -13 -13 -13 -13 -13 -13 -13 -13 -13 -13 -13
-14 -14 -14 -14 -14 -14 -15 -15 -15 -15 -15 -15 -14 -14 -15 -15 -15 -14 -14 -14 -14 -14 -14 -14 -14 -14 -14 -14 -14 -13 -13 -13 -13 -13 -13 -13 -13 -13 -13 -13 -13 -13 -13
-15 -15 -15 -15 -15 -15 -15 -15 -15 -15 -15 -15 -15 -15 -15 -15 -15 -15 -14 -14 -14 -14 -14 -14 -14 -14 -14 -14 -14 -14 -14 -14 -14 -14 -14 -14 -14 -14 -14 -14 -14 -14 -14
-15 -15 -15 -16 -16 -16 -16 -16 -16 -16 -15 -15 -15 -15 -15 -15 -15 -15 -15 -15 -15 -15 -15 -15 -15 -14 -14 -14 -14 -14 -14 -14 -14 -14 -14 -14 -14 -14 -14 -14 -14 -14 -14
-16 -16 -16 -16 -16 -16 -16 -16 -16 -16 -16 -16 -16 -16 -16 -15 -15 -15 -15 -15 -15 -15 -15 -15 -15 -15 -15 -15 -15 -15 -15 -15 -15 -15 -14 -14 -14 -14 -14 -14 -14 -14 -14
-16 -16 -16 -16 -16 -17 -17 -16 -16 -16 -16 -16 -16 -16 -16 -16 -16 -16 -16 -16 -16 -15 -15 -15 -15 -15 -15 -15 -15 -15 -15 -15 -15 -15 -15 -15 -15 -15 -15 -15 -15 -15 -15
-17 -17 -17 -17 -17 -17 -17 -17 -17 -17 -17 -17 -16 -16 -16 -16 -16 -16 -16 -16 -16 -16 -16 -16 -16 -16 -16 -16 -15 -15 -15 -15 -15 -15 -15 -15 -15 -15 -15 -15 -15 -15 -15
Wind_Speed
1 1 1 1 1 2 2 3 3 3 3 3 3 3 3 3 3 3 4 3 4 4 3 4 4 4 3 3 3 3 3 3 5 5 3 3 3 4 6 7 7 7 8
2 2 2 2 2 2 3 3 3 3 4 3 3 3 4 4 3 4 5 4 4 5 5 4 5 4 4 3 3 4 4 4 4 6 4 3 4 4 5 5 6 7 8
2 2 2 2 2 3 3 3 3 3 3 3 3 4 4 4 4 5 4 4 4 5 5 5 5 5 5 4 4 4 4 4 3 4 4 3 3 3 3 4 5 5 7
2 2 2 3 3 4 4 3 3 3 3 3 4 4 4 5 5 5 4 4 4 4 4 5 5 5 6 5 5 5 4 4 4 4 4 4 3 3 2 3 4 4 5
3 3 3 4 4 3 3 3 3 3 4 4 4 4 4 4 4 4 4 4 4 4 4 5 5 6 7 6 5 5 4 4 4 4 4 3 3 2 3 3 5 5 5
3 4 4 4 4 4 4 4 3 3 4 4 4 4 5 4 7 7 5 4 4 4 5 5 5 6 7 8 8 8 7 6 5 5 4 5 4 4 3 3 3 3 4
3 4 4 4 4 4 4 4 4 4 4 4 4 4 5 6 8 8 7 4 4 4 5 4 5 5 6 5 6 7 7 8 8 6 6 6 5 5 4 4 4 5 6
4 4 4 4 4 5 4 4 4 4 4 4 5 5 5 6 8 8 7 4 4 4 5 5 5 5 6 5 5 5 5 6 7 6 6 6 6 5 5 5 5 5 5
4 4 5 4 5 5 5 5 4 4 4 4 4 4 5 6 8 8 7 3 3 4 5 5 5 6 8 8 5 5 6 6 7 7 8 8 9 9 7 3 3 3 5
5 5 5 5 5 5 5 5 4 4 5 5 5 4 5 5 8 8 7 3 4 4 4 5 6 7 8 8 5 5 6 6 5 5 6 6 6 7 7 5 4 4 4
5 5 5 5 5 5 5 4 4 4 4 4 5 5 5 6 7 8 8 4 4 4 4 4 5 8 8 8 7 6 8 6 4 4 4 4 4 4 4 5 5 5 5
4 5 5 5 5 4 4 4 4 4 4 4 4 5 4 5 7 8 9 8 6 4 4 4 5 8 8 8 7 7 8 6 3 4 4 4 4 4 4 5 6 7 7
4 5 5 5 5 4 4 4 4 3 3 4 4 5 5 4 6 9 9 9 9 5 5 7 8 8 7 6 7 7 6 4 3 4 5 5 4 4 4 4 4 5 6
4 5 5 4 4 4 4 4 4 4 4 4 5 5 5 5 5 5 5 6 8 6 5 7 8 7 5 5 5 4 3 3 3 4 4 3 3 3 3 3 3 3 3
4 4 4 4 4 4 4 4 5 5 6 6 5 5 5 6 7 9 6 5 4 5 4 2 2 2 2 2 2 3 3 3 3 3 3 3 3 3 3 2 3 3 4
4 4 4 4 4 4 4 5 7 7 9 10 9 8 7 9 11 10 10 10 9 7 4 2 3 3 3 3 3 3 3 3 3 3 3 3 4 4 3 3 3 3 4
4 4 4 4 4 4 4 4 5 6 8 9 10 10 10 10 11 10 10 9 8 6 3 2 3 4 4 4 4 4 4 4 3 3 3 3 3 3 3 3 3 3 4
4 5 5 4 4 4 4 4 4 5 6 6 8 10 10 10 10 9 9 6 4 4 3 3 4 4 4 4 4 4 4 3 3 3 3 3 3 3 3 4 4 4 4
4 3 4 4 4 4 4 4 4 5 5 5 5 6 8 9 9 8 6 3 3 3 3 4 4 4 4 4 4 4 4 4 4 4 4 3 3 3 4 4 4 6 5
3 6 5 3 3 3 3 4 4 4 4 4 4 5 5 5 4 4 4 3 3 4 4 4 4 4 4 4 4 4 4 4 4 4 4 4 4 4 4 4 4 4 4
3 4 7 4 3 3 3 4 4 4 4 4 5 6 7 4 4 4 4 4 4 4 4 5 4 5 4 4 4 5 5 5 4 4 4 4 4 4 4 4 4 4 4
3 3 3 3 3 3 4 3 3 4 4 5 5 6 9 5 4 4 4 5 4 5 5 5 5 5 5 5 5 5 5 5 5 5 5 5 5 5 4 4 4 4 4
3 3 3 3 3 5 5 3 4 4 5 5 5 5 5 5 5 5 5 5 5 5 6 6 6 6 6 7 7 6 6 6 6 6 5 5 5 5 5 5 5 5 5
3 3 3 4 4 4 4 4 4 5 5 5 5 5 5 5 5 6 6 5 6 6 6 6 7 7 9 8 8 8 9 9 9 8 8 7 6 6 5 5 5 6 6
3 3 3 4 4 4 4 5 5 5 5 5 5 5 5 5 5 6 5 6 6 6 7 7 7 8 9 10 10 10 11 12 12 10 9 7 7 7 6 6 5 5 6
3 3 4 4 4 4 5 5 5 5 6 6 6 6 6 6 6 6 6 6 6 6 7 7 8 9 11 10 11 12 12 13 13 13 10 7 6 6 6 6 6 6 6
Wind_Direction
324 304 308 311 323 324 299 296 299 303 303 293 288 286 280 271 264 249 249 245 240 249 254 246 251 256 245 245 243 238 240 233 245 262 266 276 258 263 280 277 275 270 267
312 310 299 314 324 309 302 305 309 302 299 295 294 286 283 281 273 251 251 249 237 242 246 244 248 248 240 239 240 243 244 244 240 256 270 269 256 255 261 272 275 272 266
316 308 307 314 312 298 297 301 304 299 302 306 304 289 286 284 279 266 251 251 247 245 245 243 247 238 240 241 239 241 248 255 245 247 264 263 262 271 266 274 275 278 275
320 304 298 297 292 288 291 295 296 296 291 294 295 293 292 285 280 278 262 255 254 257 258 254 249 234 233 236 239 240 245 252 250 249 260 260 259 261 251 260 277 277 279
316 302 292 294 295 296 297 297 299 301 298 296 295 299 301 291 278 277 267 258 256 259 264 264 262 259 249 243 244 239 239 246 253 258 264 266 258 252 248 256 267 281 278
304 291 295 300 301 299 297 300 302 301 303 301 292 294 296 294 296 289 283 270 267 258 262 270 269 264 265 259 256 255 246 242 244 248 259 261 258 258 257 258 266 280 281
298 295 296 298 297 297 300 302 297 293 297 296 294 293 290 294 300 296 288 282 268 260 257 262 270 273 275 272 269 267 261 259 250 242 250 256 256 247 247 255 256 263 266
295 296 293 293 294 297 296 293 291 287 284 283 286 287 290 296 304 305 301 292 275 270 265 258 256 263 264 267 266 269 266 266 263 254 251 257 259 259 245 243 253 270 283
293 294 290 282 282 285 285 283 284 288 286 283 285 282 284 296 303 304 306 290 279 277 277 274 266 258 263 267 262 263 272 278 280 268 265 268 269 266 261 254 254 267 279
285 286 286 279 274 275 276 279 280 281 279 285 291 286 282 287 294 299 303 289 278 281 282 276 275 277 273 269 253 248 260 269 275 283 277 276 276 275 269 250 238 249 272
289 290 290 282 275 270 273 279 283 280 284 284 285 288 283 286 292 295 294 290 277 279 281 280 280 282 285 280 272 253 261 266 260 262 266 264 267 271 271 264 251 242 250
293 292 293 286 279 278 277 280 280 274 276 278 284 291 289 289 292 293 290 289 290 277 275 279 280 284 283 282 282 279 277 275 260 262 266 264 261 262 263 264 259 257 255
299 295 295 292 283 282 276 276 279 269 265 274 276 282 292 296 294 294 291 291 293 291 282 284 284 285 285 285 289 294 292 276 263 259 261 263 260 260 260 266 269 274 277
291 294 293 292 288 284 278 271 268 264 264 269 272 277 284 288 287 289 287 288 288 289 288 287 285 287 290 293 295 299 293 279 268 264 266 271 271 259 257 259 266 273 278
289 289 291 291 288 285 280 268 267 258 255 262 263 268 273 277 280 287 293 290 288 283 292 295 289 291 285 290 293 290 290 286 279 276 276 274 274 270 269 264 260 263 265
285 289 286 286 288 284 286 295 288 283 284 280 277 278 277 280 289 291 292 290 290 289 287 271 270 267 265 268 272 277 277 276 274 270 267 268 270 268 271 276 264 256 262
265 275 278 281 283 284 280 282 296 305 299 293 291 290 289 292 292 293 295 295 293 290 274 262 260 264 265 264 265 266 269 271 270 268 265 265 265 267 269 269 268 270 270
269 278 282 270 272 275 275 274 276 287 300 304 303 300 302 301 299 299 299 299 299 297 272 265 264 266 267 266 264 266 269 272 270 269 267 267 263 262 263 267 268 269 272
279 278 276 274 274 274 278 278 276 280 285 294 307 312 316 316 315 313 315 299 292 290 287 283 278 273 271 271 268 266 264 264 266 266 265 260 258 258 260 261 265 274 278
278 291 296 286 281 282 283 282 281 283 288 291 296 304 316 317 314 316 313 298 287 284 282 282 284 282 275 271 270 267 264 263 263 259 260 259 256 251 252 257 260 265 268
281 290 301 299 286 281 279 277 278 280 283 287 289 295 301 300 295 294 292 289 285 285 286 284 283 282 280 277 270 264 259 259 259 257 257 257 258 255 253 254 256 257 263
287 284 286 287 289 285 284 279 279 280 282 285 292 299 304 303 292 288 287 285 283 281 280 279 278 277 276 273 271 267 261 257 255 253 254 256 258 255 253 254 257 260 260
288 292 295 295 294 297 302 296 288 284 284 285 288 291 294 292 290 288 287 288 288 286 286 281 276 277 279 275 268 262 257 255 255 254 252 255 254 252 250 251 250 256 259
284 286 290 295 298 297 295 294 293 290 289 290 290 289 289 289 287 287 287 287 286 285 284 280 276 274 277 279 275 267 262 261 259 253 248 247 248 249 248 247 248 252 255
286 286 288 290 292 292 292 293 292 293 293 293 291 291 292 291 290 289 287 285 284 283 283 283 280 278 277 276 274 272 269 269 269 262 252 246 243 242 241 241 246 252 254
290 288 286 286 285 286 286 288 289 289 288 289 289 287 286 286 286 285 286 286 287 286 286 287 283 280 279 277 275 273 273 272 272 269 261 247 238 239 236 240 241 246 251
Height
1493 1494 1494 1493 1493 1493 1492 1492 1492 1491 1491 1491 1491 1491 1491 1490 1491 1491 1491 1491 1491 1491 1491 1491 1491 1492 1493 1493 1494 1495 1496 1496 1495 1494 1495 1496 1496 1497 1497 1497 1496 1497 1498
1491 1491 1490 1490 1489 1489 1488 1488 1488 1487 1487 1487 1486 1486 1486 1486 1486 1486 1486 1486 1485 1485 1486 1486 1486 1487 1487 1488 1488 1489 1490 1490 1490 1489 1489 1490 1491 1492 1492 1491 1491 1492 1492
1488 1488 1487 1486 1485 1485 1484 1484 1483 1483 1483 1482 1482 1482 1481 1481 1481 1481 1481 1481 1480 1480 1481 1480 1480 1481 1481 1482 1483 1483 1484 1485 1485 1485 1483 1484 1485 1486 1486 1486 1486 1486 1487
1484 1484 1483 1482 1482 1481 1481 1480 1479 1479 1478 1478 1478 1477 1477 1477 1477 1477 1476 1476 1475 1475 1475 1475 1475 1476 1476 1476 1477 1478 1479 1479 1479 1479 1478 1479 1479 1480 1480 1480 1480 1480 1481
1481 1481 1480 1479 1479 1478 1477 1476 1475 1475 1474 1474 1473 1473 1473 1472 1472 1472 1471 1471 1471 1470 1470 1470 1470 1471 1471 1471 1472 1472 1473 1473 1473 1473 1472 1472 1473 1474 1474 1474 1474 1474 1474
1478 1477 1476 1475 1475 1474 1473 1472 1472 1471 1471 1470 1469 1469 1468 1468 1467 1467 1467 1466 1466 1465 1465 1465 1465 1465 1465 1466 1466 1467 1467 1468 1467 1467 1466 1466 1467 1468 1469 1469 1469 1468 1467
1475 1474 1473 1472 1471 1470 1470 1469 1468 1467 1467 1466 1465 1465 1464 1463 1463 1463 1462 1462 1461 1460 1460 1460 1459 1459 1460 1460 1460 1461 1461 1462 1462 1463 1462 1461 1462 1463 1464 1463 1463 1463 1463
1471 1470 1469 1468 1468 1467 1466 1465 1464 1463 1462 1462 1461 1460 1460 1459 1459 1458 1458 1457 1456 1456 1455 1455 1455 1454 1454 1455 1454 1455 1455 1455 1456 1456 1456 1456 1457 1458 1458 1459 1458 1458 1458
1467 1467 1466 1465 1464 1463 1462 1461 1460 1459 1458 1458 1457 1456 1455 1455 1455 1454 1454 1452 1451 1451 1450 1450 1450 1449 1449 1450 1449 1449 1449 1449 1450 1450 1451 1451 1452 1453 1453 1453 1453 1453 1451
1464 1463 1462 1461 1460 1459 1458 1457 1456 1455 1454 1454 1453 1452 1451 1450 1450 1450 1450 1448 1447 1446 1446 1446 1446 1446 1445 1445 1445 1444 1444 1444 1444 1444 1445 1445 1446 1447 1447 1448 1447 1447 1446
1460 1459 1459 1458 1457 1455 1454 1453 1453 1451 1450 1449 1448 1448 1447 1446 1446 1446 1445 1444 1443 1442 1441 1441 1441 1441 1441 1440 1440 1440 1440 1440 1439 1439 1439 1440 1440 1440 1441 1441 1441 1441 1441
1456 1455 1454 1453 1453 1452 1450 1449 1448 1447 1446 1445 1444 1443 1443 1442 1442 1441 1441 1440 1439 1438 1437 1437 1436 1436 1436 1435 1435 1435 1435 1435 1434 1434 1434 1434 1434 1434 1435 1435 1435 1436 1436
1452 1451 1450 1449 1449 1448 1446 1445 1444 1443 1442 1441 1440 1439 1438 1438 1437 1437 1436 1436 1435 1434 1433 1432 1432 1432 1431 1431 1430 1430 1430 1429 1429 1429 1428 1428 1429 1429 1429 1429 1429 1430 1430
1448 1447 1446 1445 1444 1443 1442 1441 1440 1439 1438 1437 1436 1435 1434 1434 1433 1432 1432 1431 1430 1429 1428 1428 1427 1427 1427 1426 1425 1425 1425 1424 1424 1424 1424 1424 1424 1424 1424 1424 1424 1423 1423
1444 1443 1442 1441 1440 1439 1438 1437 1436 1436 1435 1434 1433 1432 1431 1429 1429 1429 1428 1427 1426 1426 1424 1423 1422 1422 1421 1421 1421 1420 1420 1420 1419 1419 1419 1419 1419 1419 1419 1419 1419 1419 1418
1440 1439 1438 1437 1436 1435 1434 1433 1432 1432 1431 1430 1429 1428 1426 1426 1425 1425 1424 1423 1422 1422 1420 1418 1418 1417 1417 1416 1416 1416 1416 1416 1415 1415 1415 1415 1415 1414 1414 1414 1414 1414 1413
1437 1436 1435 1433 1432 1431 1430 1429 1427 1427 1426 1425 1424 1423 1422 1421 1420 1420 1419 1418 1418 1417 1415 1414 1413 1413 1412 1412 1412 1411 1411 1411 1411 1411 1410 1410 1410 1409 1409 1409 1409 1409 1409
1433 1432 1431 1430 1428 1427 1426 1425 1424 1422 1421 1419 1419 1418 1417 1416 1415 1415 1414 1413 1412 1411 1410 1409 1409 1408 1408 1407 1407 1407 1407 1407 1406 1406 1406 1405 1405 1405 1405 1405 1405 1405 1404
1430 1429 1428 1426 1425 1424 1422 1421 1420 1419 1417 1415 1414 1414 1413 1412 1411 1410 1409 1408 1407 1406 1406 1405 1404 1404 1403 1403 1403 1402 1402 1402 1402 1402 1401 1401 1401 1401 1401 1401 1401 1401 1400
1427 1426 1424 1423 1421 1420 1419 1418 1416 1415 1413 1412 1411 1410 1409 1408 1406 1405 1405 1404 1403 1402 1401 1401 1400 1399 1399 1398 1398 1398 1397 1397 1397 1397 1397 1397 1397 1397 1396 1396 1396 1396 1395
1423 1422 1421 1419 1418 1417 1415 1414 1413 1411 1410 1408 1407 1406 1405 1404 1403 1402 1401 1400 1399 1398 1397 1396 1395 1395 1394 1394 1393 1393 1392 1392 1392 1392 1392 1392 1392 1392 1392 1391 1391 1391 1390
1420 1419 1417 1416 1414 1413 1412 1411 1409 1408 1406 1404 1403 1402 1401 1400 1398 1397 1396 1396 1395 1394 1393 1392 1391 1390 1389 1389 1388 1387 1387 1387 1387 1387 1387 1387 1387 1387 1387 1387 1386 1386 1386
1417 1416 1414 1413 1411 1410 1408 1407 1405 1404 1402 1401 1399 1398 1396 1395 1394 1393 1392 1391 1390 1389 1388 1387 1386 1385 1384 1383 1383 1382 1382 1381 1382 1382 1382 1382 1382 1382 1382 1382 1381 1381 1381
1415 1413 1411 1410 1408 1406 1405 1403 1402 1400 1398 1397 1395 1394 1392 1391 1390 1388 1387 1386 1385 1383 1382 1381 1380 1379 1379 1378 1377 1377 1376 1376 1376 1377 1377 1377 1377 1377 1377 1377 1377 1376 1376
1411 1410 1408 1406 1404 1403 1401 1399 1398 1396 1394 1393 1391 1389 1388 1387 1385 1383 1382 1381 1379 1378 1377 1376 1375 1374 1373 1372 1372 1371 1371 1371 1371 1371 1371 1371 1372 1372 1372 1372 1372 1372 1372
1408 1406 1404 1403 1401 1399 1397 1395 1394 1392 1390 1388 1387 1385 1383 1382 1380 1379 1377 1376 1374 1372 1371 1370 1369 1368 1367 1367 1366 1365 1365 1365 1365 1366 1366 1366 1366 1366 1367 1367 1367 1367 1367